Location: Chimay
(50.0486°N, 4.3171°E)
Time: 10:38:53
(UTC+00:00)

Sich 1 Rocket - Pass Details

Date: 08 August 2020
Orbit: 617 x 651 km, 82.5° (Epoch: 20 September)

Event Time Altitude Azimuth Distance (km) Brightness Sun altitude
Exits shadow 23:55:32 47° 91° (E) 828 4.1 -24.2°
Drops below altitude 10° 23:59:43 10° 21° (NNE) 1,995 7.1 -24.1°
Sets 00:02:01 0° 15° (NNE) 2,905 8.3 -24.1°
